| time (UTC) | temp F | wind direction | speed MPH | gust MPH | rain 1hr in | rain 24hr in | rain mn in | humidity % | barometer mb |
| 20260505124938 | 55 | 25 | 3.0 | 3.0 | 0.00 | 0.40 | 0.40 | 95 | 1007.7 |
| 20260505124435 | 55 | 18 | 0.0 | 0.0 | 0.00 | 0.40 | 0.40 | 95 | 1007.4 |
| 20260505123931 | 55 | 12 | 3.0 | 3.0 | 0.00 | 0.40 | 0.40 | 95 | 1007.4 |
| 20260505123428 | 55 | 25 | 0.0 | 0.0 | 0.00 | 0.40 | 0.40 | 95 | 1007.4 |
| 20260505122923 | 55 | 18 | 2.0 | 2.0 | 0.00 | 0.40 | 0.40 | 95 | 1007.4 |
| 20260505122421 | 55 | 24 | 2.0 | 2.0 | 0.00 | 0.40 | 0.40 | 95 | 1007.4 |
| 20260505121918 | 56 | 37 | 2.0 | 2.0 | 0.00 | 0.40 | 0.40 | 96 | 1007.4 |
| 20260505121415 | 56 | 42 | 2.0 | 2.0 | 0.00 | 0.40 | 0.40 | 96 | 1007.4 |
| 20260505120910 | 56 | 30 | 0.0 | 0.0 | 0.00 | 0.40 | 0.40 | 96 | 1006.6 |
| 20260505120407 | 56 | 14 | 2.0 | 2.0 | 0.00 | 0.40 | 0.40 | 96 | 1006.6 |
| 20260505115906 | 56 | 36 | 3.0 | 3.0 | 0.00 | 0.40 | 0.40 | 96 | 1006.6 |
| 20260505115403 | 56 | 30 | 3.0 | 3.0 | 0.00 | 0.40 | 0.40 | 96 | 1006.6 |
| 20260505114901 | 56 | 30 | 2.0 | 2.0 | 0.00 | 0.40 | 0.40 | 96 | 1006.6 |
| 20260505114357 | 56 | 42 | 2.0 | 2.0 | 0.00 | 0.40 | 0.40 | 96 | 1006.3 |
| 20260505113853 | 57 | 30 | 2.0 | 2.0 | 0.00 | 0.40 | 0.40 | 96 | 1006.6 |
| 20260505113350 | 57 | 30 | 2.0 | 2.0 | 0.00 | 0.40 | 0.40 | 96 | 1006.6 |
| 20260505112846 | 57 | 31 | 2.0 | 2.0 | 0.00 | 0.40 | 0.40 | 96 | 1006.3 |
| 20260505112344 | 57 | 42 | 2.0 | 2.0 | 0.00 | 0.40 | 0.40 | 96 | 1006.3 |
| 20260505111839 | 58 | 42 | 2.0 | 2.0 | 0.00 | 0.40 | 0.40 | 96 | 1005.9 |
| 20260505111334 | 58 | 42 | 2.0 | 2.0 | 0.00 | 0.40 | 0.40 | 96 | 1005.6 |
| 20260505110831 | 59 | 20 | 2.0 | 2.0 | 0.00 | 0.40 | 0.40 | 96 | 1005.9 |
| 20260505110328 | 60 | 132 | 2.0 | 2.0 | 0.00 | 0.40 | 0.40 | 96 | 1005.9 |
| 20260505101803 | 60 | 144 | 0.0 | 0.0 | 0.00 | 0.40 | 0.40 | 96 | 1006.3 |
| 20260505101258 | 60 | 144 | 0.0 | 0.0 | 0.00 | 0.40 | 0.40 | 96 | 1006.3 |
| 20260505100755 | 60 | 144 | 0.0 | 0.0 | 0.00 | 0.40 | 0.40 | 96 | 1006.3 |
| 20260505100251 | 60 | 144 | 0.0 | 0.0 | 0.00 | 0.40 | 0.40 | 96 | 1006.3 |
| 20260505095747 | 60 | 149 | 2.0 | 2.0 | 0.04 | 0.40 | 0.40 | 96 | 1006.6 |
| 20260505095245 | 61 | 150 | 0.0 | 0.0 | 0.04 | 0.40 | 0.40 | 96 | 1006.6 |
| 20260505094740 | 61 | 150 | 0.0 | 0.0 | 0.04 | 0.40 | 0.40 | 96 | 1006.6 |
| 20260505094237 | 61 | 150 | 0.0 | 0.0 | 0.04 | 0.40 | 0.40 | 96 | 1006.3 |
| 20260505093733 | 61 | 150 | 0.0 | 0.0 | 0.04 | 0.40 | 0.40 | 96 | 1006.3 |
| 20260505093231 | 61 | 150 | 1.0 | 1.0 | 0.03 | 0.39 | 0.39 | 96 | 1005.6 |
| 20260505092728 | 61 | 150 | 0.0 | 0.0 | 0.03 | 0.39 | 0.39 | 96 | 1005.6 |
| 20260505092227 | 61 | 150 | 0.0 | 0.0 | 0.03 | 0.39 | 0.39 | 96 | 1005.6 |
| 20260505091723 | 61 | 150 | 2.0 | 2.0 | 0.03 | 0.39 | 0.39 | 96 | 1005.2 |
| 20260505091221 | 61 | 150 | 1.0 | 1.0 | 0.01 | 0.37 | 0.37 | 96 | 1005.2 |
| 20260505090718 | 61 | 150 | 0.0 | 0.0 | 0.01 | 0.37 | 0.37 | 96 | 1004.9 |
| 20260505090217 | 61 | 150 | 2.0 | 2.0 | 0.01 | 0.37 | 0.37 | 96 | 1005.2 |
| 20260505085714 | 61 | 150 | 0.0 | 0.0 | 0.07 | 0.36 | 0.36 | 96 | 1005.2 |
| 20260505085212 | 61 | 150 | 0.0 | 0.0 | 0.07 | 0.36 | 0.36 | 96 | 1005.2 |
| 20260505084709 | 61 | 150 | 2.0 | 2.0 | 0.07 | 0.36 | 0.36 | 96 | 1005.2 |
| 20260505084208 | 61 | 150 | 1.0 | 1.0 | 0.07 | 0.36 | 0.36 | 96 | 1005.6 |
| 20260505083704 | 61 | 150 | 2.0 | 2.0 | 0.04 | 0.33 | 0.33 | 96 | 1005.9 |
| 20260505083201 | 61 | 150 | 2.0 | 2.0 | 0.04 | 0.33 | 0.33 | 95 | 1005.9 |
| 20260505082657 | 61 | 150 | 2.0 | 2.0 | 0.03 | 0.31 | 0.31 | 95 | 1005.6 |
| 20260505082154 | 61 | 150 | 2.0 | 2.0 | 0.01 | 0.29 | 0.29 | 95 | 1005.6 |
| 20260505081650 | 61 | 174 | 2.0 | 2.0 | 0.01 | 0.29 | 0.29 | 95 | 1004.9 |
| 20260505081148 | 61 | 155 | 3.0 | 3.0 | 0.01 | 0.29 | 0.29 | 96 | 1004.9 |
| 20260505080645 | 61 | 132 | 3.0 | 3.0 | 0.00 | 0.28 | 0.28 | 96 | 1004.9 |
| 20260505080140 | 61 | 144 | 2.0 | 2.0 | 0.00 | 0.28 | 0.28 | 96 | 1004.6 |
| 20260505075637 | 61 | 90 | 2.0 | 2.0 | 0.03 | 0.28 | 0.28 | 96 | 1004.6 |
| 20260505075133 | 61 | 150 | 3.0 | 3.0 | 0.01 | 0.26 | 0.26 | 96 | 1004.2 |
| 20260505074630 | 61 | 156 | 2.0 | 2.0 | 0.01 | 0.26 | 0.26 | 96 | 1004.6 |
| 20260505074127 | 62 | 191 | 2.0 | 2.0 | 0.01 | 0.26 | 0.26 | 96 | 1004.6 |
| 20260505073625 | 62 | 162 | 2.0 | 2.0 | 0.01 | 0.26 | 0.26 | 96 | 1004.9 |
| 20260505073123 | 62 | 144 | 3.0 | 3.0 | 0.01 | 0.26 | 0.26 | 96 | 1005.6 |
| 20260505072618 | 62 | 150 | 2.0 | 2.0 | 0.01 | 0.26 | 0.26 | 96 | 1005.6 |
| 20260505072116 | 62 | 114 | 3.0 | 3.0 | 0.01 | 0.26 | 0.26 | 95 | 1005.6 |
| 20260505071611 | 62 | 126 | 2.0 | 2.0 | 0.01 | 0.26 | 0.26 | 95 | 1005.9 |
| 20260505071109 | 62 | 144 | 3.0 | 3.0 | 0.00 | 0.25 | 0.25 | 95 | 1006.6 |
| 20260505070606 | 62 | 150 | 2.0 | 2.0 | 0.00 | 0.25 | 0.25 | 95 | 1006.6 |
| 20260505065558 | 62 | 160 | 1.0 | 1.0 | 0.22 | 0.25 | 0.25 | 95 | 1008.0 |
| 20260505065055 | 62 | 162 | 2.0 | 2.0 | 0.20 | 0.23 | 0.23 | 95 | 1008.4 |
| 20260505064551 | 62 | 274 | 1.0 | 1.0 | 0.18 | 0.22 | 0.22 | 94 | 1008.0 |
| 20260505064050 | 62 | 274 | 1.0 | 1.0 | 0.15 | 0.18 | 0.18 | 94 | 1008.0 |
| 20260505063547 | 62 | 274 | 2.0 | 2.0 | 0.15 | 0.18 | 0.18 | 94 | 1008.0 |
| 20260505063043 | 62 | 294 | 2.0 | 2.0 | 0.14 | 0.17 | 0.17 | 93 | 1008.4 |
| 20260505062540 | 62 | 293 | 2.0 | 2.0 | 0.11 | 0.14 | 0.14 | 93 | 1008.7 |
| 20260505062037 | 63 | 240 | 2.0 | 2.0 | 0.07 | 0.11 | 0.11 | 92 | 1008.4 |
| 20260505061534 | 63 | 294 | 3.0 | 3.0 | 0.06 | 0.09 | 0.09 | 92 | 1008.4 |
| 20260505061032 | 63 | 294 | 2.0 | 2.0 | 0.03 | 0.06 | 0.06 | 90 | 1008.0 |
| 20260505060529 | 64 | 294 | 2.0 | 2.0 | 0.01 | 0.04 | 0.04 | 89 | 1007.7 |
| 20260505060026 | 64 | 180 | 2.0 | 2.0 | 0.00 | 0.03 | 0.03 | 86 | 1007.4 |
| 20260505055521 | 65 | 180 | 1.0 | 1.0 | 0.01 | 0.01 | 0.01 | 83 | 1006.9 |
| 20260505055018 | 66 | 180 | 0.0 | 0.0 | 0.00 | 0.00 | 0.00 | 81 | 1006.9 |
| 20260505054516 | 66 | 180 | 2.0 | 2.0 | 0.00 | 0.00 | 0.00 | 79 | 1006.6 |
| 20260505054014 | 67 | 180 | 2.0 | 2.0 | 0.00 | 0.00 | 0.00 | 76 | 1006.3 |
| 20260505053510 | 68 | 180 | 2.0 | 2.0 | 0.00 | 0.00 | 0.00 | 73 | 1006.3 |
| 20260505053007 | 69 | 198 | 2.0 | 2.0 | 0.00 | 0.00 | 0.00 | 71 | 1005.9 |
| 20260505052504 | 69 | 210 | 2.0 | 2.0 | 0.00 | 0.00 | 0.00 | 68 | 1005.9 |
| 20260505052001 | 69 | 144 | 3.0 | 3.0 | 0.00 | 0.00 | 0.00 | 68 | 1005.6 |
| 20260505051458 | 69 | 150 | 3.0 | 3.0 | 0.00 | 0.00 | 0.00 | 69 | 1005.6 |
| 20260505050956 | 69 | 143 | 2.0 | 2.0 | 0.00 | 0.00 | 0.00 | 69 | 1005.6 |
| 20260505050454 | 69 | 162 | 2.0 | 2.0 | 0.00 | 0.00 | 0.00 | 69 | 1005.6 |
| 20260505041422 | 69 | 160 | 3.0 | 3.0 | 0.00 | 0.00 | 0.00 | 69 | 1005.9 |
| 20260505040919 | 69 | 143 | 3.0 | 3.0 | 0.00 | 0.00 | 0.00 | 69 | 1005.6 |
| 20260505040416 | 69 | 137 | 4.0 | 4.0 | 0.00 | 0.00 | 0.00 | 68 | 1005.6 |
| 20260505035913 | 69 | 162 | 2.0 | 2.0 | 0.00 | 0.00 | 0.00 | 68 | 1005.9 |
| 20260505035409 | 70 | 166 | 4.0 | 4.0 | 0.00 | 0.00 | 0.00 | 67 | 1005.6 |
| 20260505034907 | 70 | 162 | 2.0 | 2.0 | 0.00 | 0.00 | 0.00 | 67 | 1006.3 |
| 20260505034403 | 70 | 144 | 2.0 | 2.0 | 0.00 | 0.00 | 0.00 | 67 | 1006.6 |
| 20260505033900 | 69 | 150 | 3.0 | 3.0 | 0.00 | 0.00 | 0.00 | 67 | 1006.6 |
| 20260505033357 | 69 | 132 | 3.0 | 3.0 | 0.00 | 0.00 | 0.00 | 67 | 1006.3 |
| 20260505032855 | 70 | 156 | 2.0 | 2.0 | 0.00 | 0.00 | 0.00 | 67 | 1006.6 |
| 20260505032351 | 70 | 150 | 3.0 | 3.0 | 0.00 | 0.00 | 0.00 | 67 | 1006.3 |
| 20260505031848 | 70 | 174 | 2.0 | 2.0 | 0.00 | 0.00 | 0.00 | 67 | 1006.3 |
| 20260505031345 | 70 | 132 | 4.0 | 4.0 | 0.00 | 0.00 | 0.00 | 66 | 1005.9 |
| 20260505030842 | 70 | 168 | 4.0 | 4.0 | 0.00 | 0.00 | 0.00 | 66 | 1006.3 |
| 20260505030338 | 70 | 162 | 2.0 | 2.0 | 0.00 | 0.00 | 0.00 | 66 | 1006.3 |
| 20260505025833 | 70 | 132 | 3.0 | 3.0 | 0.00 | 0.00 | 0.00 | 65 | 1006.3 |
| 20260505025331 | 70 | 144 | 2.0 | 2.0 | 0.00 | 0.00 | 0.00 | 65 | 1006.3 |
| 20260505024830 | 70 | 162 | 4.0 | 5.0 | 0.00 | 0.00 | 0.00 | 65 | 1006.3 |
| 20260505024327 | 70 | 180 | 3.0 | 4.0 | 0.00 | 0.00 | 0.00 | 65 | 1006.3 |
| 20260505023824 | 71 | 150 | 2.0 | 2.0 | 0.00 | 0.00 | 0.00 | 65 | 1005.9 |
| 20260505023321 | 71 | 156 | 3.0 | 3.0 | 0.00 | 0.00 | 0.00 | 64 | 1006.3 |
| 20260505022818 | 71 | 150 | 3.0 | 3.0 | 0.00 | 0.00 | 0.00 | 64 | 1005.9 |
| 20260505022315 | 71 | 148 | 4.0 | 4.0 | 0.00 | 0.00 | 0.00 | 64 | 1005.9 |
| 20260505021813 | 71 | 148 | 2.0 | 2.0 | 0.00 | 0.00 | 0.00 | 64 | 1006.3 |
| 20260505021309 | 71 | 149 | 4.0 | 4.0 | 0.00 | 0.00 | 0.00 | 65 | 1005.9 |
| 20260505020805 | 71 | 150 | 2.0 | 2.0 | 0.00 | 0.00 | 0.00 | 65 | 1005.9 |
| 20260505020301 | 71 | 162 | 2.0 | 2.0 | 0.00 | 0.00 | 0.00 | 64 | 1005.6 |
| 20260505015758 | 71 | 149 | 2.0 | 2.0 | 0.00 | 0.00 | 0.00 | 64 | 1005.6 |
| 20260505015254 | 71 | 144 | 4.0 | 4.0 | 0.00 | 0.00 | 0.00 | 63 | 1005.6 |
| 20260505014751 | 71 | 150 | 2.0 | 2.0 | 0.00 | 0.00 | 0.00 | 64 | 1005.6 |
| 20260505014243 | 71 | 156 | 2.0 | 2.0 | 0.00 | 0.00 | 0.00 | 64 | 1005.6 |
| 20260505013739 | 72 | 156 | 3.0 | 4.0 | 0.00 | 0.00 | 0.00 | 63 | 1005.6 |
| 20260505013237 | 72 | 132 | 2.0 | 2.0 | 0.00 | 0.00 | 0.00 | 62 | 1005.9 |
| 20260505012735 | 72 | 165 | 3.0 | 3.0 | 0.00 | 0.00 | 0.00 | 62 | 1005.6 |
| 20260505012232 | 72 | 166 | 2.0 | 2.0 | 0.00 | 0.00 | 0.00 | 61 | 1005.6 |
| 20260505011727 | 73 | 150 | 3.0 | 4.0 | 0.00 | 0.00 | 0.00 | 61 | 1005.6 |
| 20260505011225 | 73 | 138 | 3.0 | 4.0 | 0.00 | 0.00 | 0.00 | 61 | 1005.6 |
| 20260505010720 | 73 | 142 | 2.0 | 2.0 | 0.00 | 0.00 | 0.00 | 61 | 1005.9 |
| 20260505010217 | 73 | 165 | 2.0 | 2.0 | 0.00 | 0.00 | 0.00 | 61 | 1005.9 |
| 20260505005713 | 73 | 166 | 2.0 | 2.0 | 0.00 | 0.00 | 0.00 | 61 | 1005.6 |
| 20260505005211 | 73 | 168 | 2.0 | 2.0 | 0.00 | 0.00 | 0.00 | 61 | 1005.9 |
| 20260505004708 | 73 | 180 | 2.0 | 2.0 | 0.00 | 0.00 | 0.00 | 60 | 1005.6 |
| 20260505004204 | 74 | 162 | 2.0 | 2.0 | 0.00 | 0.00 | 0.00 | 60 | 1005.6 |
| 20260505003702 | 74 | 138 | 2.0 | 2.0 | 0.00 | 0.00 | 0.00 | 59 | 1005.6 |
| 20260505003159 | 74 | 172 | 2.0 | 2.0 | 0.00 | 0.00 | 0.00 | 58 | 1005.6 |
| 20260505002655 | 74 | 199 | 2.0 | 2.0 | 0.00 | 0.00 | 0.00 | 60 | 1005.9 |
| 20260505002153 | 74 | 168 | 2.0 | 2.0 | 0.00 | 0.00 | 0.00 | 59 | 1005.9 |
| 20260505001650 | 74 | 155 | 2.0 | 2.0 | 0.00 | 0.00 | 0.00 | 58 | 1005.9 |
| 20260505001148 | 75 | 192 | 2.0 | 2.0 | 0.00 | 0.00 | 0.00 | 57 | 1005.6 |
| 20260505000644 | 75 | 181 | 2.0 | 2.0 | 0.00 | 0.00 | 0.00 | 58 | 1005.2 |
| 20260505000142 | 75 | 185 | 2.0 | 2.0 | 0.00 | 0.00 | 0.00 | 58 | 1005.6 |
| 20260504235638 | 76 | 150 | 2.0 | 2.0 | 0.00 | 0.00 | 0.00 | 59 | 1005.6 |
| 20260504235135 | 76 | 210 | 4.0 | 4.0 | 0.00 | 0.00 | 0.00 | 56 | 1005.2 |
| 20260504234633 | 76 | 343 | 2.0 | 2.0 | 0.00 | 0.00 | 0.00 | 57 | 1005.2 |
| 20260504234130 | 76 | 156 | 2.0 | 2.0 | 0.00 | 0.00 | 0.00 | 58 | 1005.6 |
| 20260504233625 | 76 | 150 | 2.0 | 2.0 | 0.00 | 0.00 | 0.00 | 56 | 1005.2 |
| 20260504233121 | 76 | 324 | 2.0 | 2.0 | 0.00 | 0.00 | 0.00 | 57 | 1005.2 |
| 20260504232619 | 76 | 212 | 3.0 | 3.0 | 0.00 | 0.00 | 0.00 | 57 | 1005.6 |
| 20260504232116 | 77 | 169 | 2.0 | 2.0 | 0.00 | 0.00 | 0.00 | 56 | 1005.6 |
| 20260504231613 | 77 | 264 | 2.0 | 2.0 | 0.00 | 0.00 | 0.00 | 57 | 1005.2 |
| 20260504231109 | 78 | 202 | 2.0 | 2.0 | 0.00 | 0.00 | 0.00 | 54 | 1005.6 |
| 20260504230604 | 78 | 174 | 3.0 | 3.0 | 0.00 | 0.00 | 0.00 | 52 | 1005.6 |
| 20260504230058 | 78 | 162 | 4.0 | 5.0 | 0.00 | 0.00 | 0.00 | 51 | 1005.6 |
| 20260504225555 | 79 | 330 | 2.0 | 2.0 | 0.00 | 0.00 | 0.00 | 52 | 1005.2 |
| 20260504225052 | 80 | 276 | 2.0 | 2.0 | 0.00 | 0.00 | 0.00 | 50 | 1005.2 |
| 20260504224549 | 79 | 175 | 2.0 | 2.0 | 0.00 | 0.00 | 0.00 | 51 | 1005.2 |
| 20260504224046 | 79 | 186 | 2.0 | 2.0 | 0.00 | 0.00 | 0.00 | 52 | 1005.2 |
| 20260504223543 | 80 | 182 | 3.0 | 4.0 | 0.00 | 0.00 | 0.00 | 50 | 1005.2 |
| 20260504223038 | 80 | 241 | 2.0 | 2.0 | 0.00 | 0.00 | 0.00 | 51 | 1004.9 |
| 20260504222535 | 80 | 116 | 4.0 | 5.0 | 0.00 | 0.00 | 0.00 | 50 | 1004.9 |
| 20260504222033 | 82 | 138 | 4.0 | 4.0 | 0.00 | 0.00 | 0.00 | 48 | 1004.9 |
| 20260504221530 | 81 | 192 | 2.0 | 2.0 | 0.00 | 0.00 | 0.00 | 47 | 1004.9 |
| 20260504221027 | 80 | 186 | 4.0 | 4.0 | 0.00 | 0.00 | 0.00 | 48 | 1004.9 |
| 20260504220523 | 80 | 144 | 2.0 | 2.0 | 0.00 | 0.00 | 0.00 | 49 | 1004.9 |
| 20260504220020 | 81 | 201 | 4.0 | 5.0 | 0.00 | 0.00 | 0.00 | 49 | 1004.9 |
| 20260504215517 | 81 | 210 | 2.0 | 2.0 | 0.00 | 0.00 | 0.00 | 51 | 1004.9 |
| 20260504215014 | 80 | 186 | 2.0 | 2.0 | 0.00 | 0.00 | 0.00 | 49 | 1004.9 |
| 20260504214510 | 80 | 264 | 2.0 | 2.0 | 0.00 | 0.00 | 0.00 | 50 | 1005.2 |
| 20260504214006 | 81 | 210 | 4.0 | 4.0 | 0.00 | 0.00 | 0.00 | 47 | 1004.9 |
| 20260504213503 | 80 | 179 | 3.0 | 4.0 | 0.00 | 0.00 | 0.00 | 49 | 1005.2 |
| 20260504213000 | 81 | 204 | 4.0 | 5.0 | 0.00 | 0.00 | 0.00 | 48 | 1005.2 |
| 20260504212456 | 81 | 264 | 3.0 | 3.0 | 0.00 | 0.00 | 0.00 | 49 | 1004.9 |
| 20260504211954 | 81 | 176 | 3.0 | 4.0 | 0.00 | 0.00 | 0.00 | 49 | 1005.6 |
| 20260504211450 | 82 | 247 | 5.0 | 5.0 | 0.00 | 0.00 | 0.00 | 46 | 1005.6 |
| 20260504210948 | 82 | 180 | 4.0 | 4.0 | 0.00 | 0.00 | 0.00 | 47 | 1005.6 |
| 20260504210444 | 82 | 185 | 2.0 | 2.0 | 0.00 | 0.00 | 0.00 | 48 | 1005.6 |
| 20260504205941 | 82 | 153 | 2.0 | 2.0 | 0.00 | 0.00 | 0.00 | 48 | 1005.2 |
| 20260504205439 | 82 | 173 | 3.0 | 3.0 | 0.00 | 0.00 | 0.00 | 48 | 1005.6 |
| 20260504204937 | 82 | 180 | 3.0 | 3.0 | 0.00 | 0.00 | 0.00 | 48 | 1005.6 |
| 20260504204435 | 81 | 172 | 2.0 | 2.0 | 0.00 | 0.00 | 0.00 | 49 | 1005.9 |
| 20260504203934 | 81 | 172 | 7.0 | 7.0 | 0.00 | 0.00 | 0.00 | 48 | 1005.9 |
| 20260504203431 | 81 | 181 | 6.0 | 7.0 | 0.00 | 0.00 | 0.00 | 47 | 1005.6 |
| 20260504202927 | 82 | 162 | 4.0 | 4.0 | 0.00 | 0.00 | 0.00 | 47 | 1005.9 |
| 20260504202424 | 82 | 210 | 5.0 | 5.0 | 0.00 | 0.00 | 0.00 | 50 | 1005.9 |
| 20260504201920 | 82 | 186 | 4.0 | 5.0 | 0.00 | 0.00 | 0.00 | 48 | 1005.9 |
| 20260504201418 | 81 | 162 | 5.0 | 5.0 | 0.00 | 0.00 | 0.00 | 48 | 1005.9 |
| 20260504200915 | 81 | 192 | 3.0 | 3.0 | 0.00 | 0.00 | 0.00 | 49 | 1005.9 |
| 20260504200412 | 81 | 198 | 3.0 | 4.0 | 0.00 | 0.00 | 0.00 | 49 | 1005.9 |
| 20260504195908 | 81 | 306 | 4.0 | 4.0 | 0.00 | 0.00 | 0.00 | 48 | 1006.3 |
| 20260504195404 | 81 | 132 | 2.0 | 2.0 | 0.00 | 0.00 | 0.00 | 50 | 1006.3 |
| 20260504194901 | 80 | 221 | 3.0 | 3.0 | 0.00 | 0.00 | 0.00 | 52 | 1006.3 |
| 20260504194357 | 80 | 176 | 7.0 | 7.0 | 0.00 | 0.00 | 0.00 | 50 | 1006.6 |
| 20260504193853 | 80 | 182 | 7.0 | 7.0 | 0.00 | 0.00 | 0.00 | 49 | 1006.6 |
| 20260504193350 | 80 | 260 | 2.0 | 2.0 | 0.00 | 0.00 | 0.00 | 50 | 1006.3 |
| 20260504192849 | 80 | 240 | 5.0 | 6.0 | 0.00 | 0.00 | 0.00 | 50 | 1006.6 |
| 20260504192346 | 80 | 300 | 2.0 | 2.0 | 0.00 | 0.00 | 0.00 | 50 | 1006.6 |
| 20260504191844 | 79 | 156 | 7.0 | 7.0 | 0.00 | 0.00 | 0.00 | 49 | 1006.9 |
| 20260504191342 | 79 | 180 | 3.0 | 3.0 | 0.00 | 0.00 | 0.00 | 51 | 1006.6 |
| 20260504190837 | 79 | 156 | 3.0 | 3.0 | 0.00 | 0.00 | 0.00 | 52 | 1006.6 |
| 20260504190333 | 79 | 126 | 4.0 | 4.0 | 0.00 | 0.00 | 0.00 | 52 | 1006.3 |
| 20260504185830 | 79 | 229 | 5.0 | 5.0 | 0.00 | 0.00 | 0.00 | 51 | 1006.9 |
| 20260504185327 | 79 | 204 | 4.0 | 4.0 | 0.00 | 0.00 | 0.00 | 51 | 1006.6 |
| 20260504184823 | 79 | 201 | 4.0 | 4.0 | 0.00 | 0.00 | 0.00 | 51 | 1006.6 |
| 20260504184319 | 78 | 282 | 2.0 | 2.0 | 0.00 | 0.00 | 0.00 | 53 | 1006.6 |
| 20260504183815 | 78 | 276 | 2.0 | 2.0 | 0.00 | 0.00 | 0.00 | 57 | 1006.6 |
| 20260504183313 | 78 | 270 | 2.0 | 2.0 | 0.00 | 0.00 | 0.00 | 51 | 1006.6 |
| 20260504182810 | 78 | 210 | 5.0 | 5.0 | 0.00 | 0.00 | 0.00 | 51 | 1006.6 |
| 20260504182308 | 78 | 192 | 2.0 | 2.0 | 0.00 | 0.00 | 0.00 | 52 | 1006.9 |
| 20260504181805 | 78 | 222 | 6.0 | 6.0 | 0.00 | 0.00 | 0.00 | 50 | 1006.9 |
| 20260504181302 | 78 | 150 | 3.0 | 4.0 | 0.00 | 0.00 | 0.00 | 54 | 1006.6 |
| 20260504180801 | 78 | 150 | 4.0 | 4.0 | 0.00 | 0.00 | 0.00 | 52 | 1006.6 |
| 20260504180259 | 78 | 122 | 6.0 | 6.0 | 0.00 | 0.00 | 0.00 | 53 | 1006.9 |
| 20260504175757 | 78 | 190 | 2.0 | 2.0 | 0.00 | 0.00 | 0.00 | 52 | 1006.6 |
| 20260504175253 | 77 | 312 | 2.0 | 2.0 | 0.00 | 0.00 | 0.00 | 53 | 1006.6 |
| 20260504174751 | 77 | 114 | 6.0 | 6.0 | 0.00 | 0.00 | 0.00 | 52 | 1006.9 |
| 20260504174249 | 77 | 198 | 6.0 | 7.0 | 0.00 | 0.00 | 0.00 | 51 | 1006.9 |
| 20260504173745 | 77 | 168 | 4.0 | 4.0 | 0.00 | 0.00 | 0.00 | 53 | 1006.9 |
| 20260504173242 | 77 | 230 | 3.0 | 3.0 | 0.00 | 0.00 | 0.00 | 54 | 1007.4 |
| 20260504172739 | 77 | 232 | 4.0 | 5.0 | 0.00 | 0.00 | 0.00 | 52 | 1007.4 |
| 20260504172235 | 76 | 156 | 5.0 | 6.0 | 0.00 | 0.00 | 0.00 | 54 | 1007.4 |
| 20260504171731 | 76 | 210 | 5.0 | 6.0 | 0.00 | 0.00 | 0.00 | 52 | 1007.4 |
| 20260504171229 | 76 | 253 | 4.0 | 4.0 | 0.00 | 0.00 | 0.00 | 53 | 1007.4 |
| 20260504170726 | 75 | 169 | 2.0 | 2.0 | 0.00 | 0.00 | 0.00 | 55 | 1007.4 |
| 20260504170223 | 75 | 208 | 7.0 | 7.0 | 0.00 | 0.00 | 0.00 | 53 | 1007.4 |
| 20260504160141 | 74 | 286 | 3.0 | 3.0 | 0.00 | 0.00 | 0.00 | 54 | 1008.0 |
| 20260504151109 | 72 | 191 | 5.0 | 5.0 | 0.00 | 0.00 | 0.00 | 55 | 1008.0 |
| 20260504150606 | 72 | 174 | 4.0 | 5.0 | 0.00 | 0.00 | 0.00 | 55 | 1008.0 |
| 20260504150103 | 72 | 168 | 6.0 | 6.0 | 0.00 | 0.00 | 0.00 | 56 | 1008.4 |
| 20260504141032 | 69 | 162 | 3.0 | 3.0 | 0.00 | 0.00 | 0.00 | 57 | 1008.7 |
| 20260504140528 | 69 | 194 | 5.0 | 6.0 | 0.00 | 0.00 | 0.00 | 57 | 1009.1 |
| 20260504130453 | 66 | 172 | 3.0 | 3.0 | 0.00 | 0.00 | 0.00 | 61 | 1009.1 |